Home   Weather   Arctic Bay   Past weeks

Flag for Canada Past Weather in Arctic Bay, Nunavut, Canada — Yesterday and Last 2 Weeks

Now
41 °F

Partly sunny.


Feels Like: 34 °F
Forecast: 31 / 47 °F
Wind: 12 mph from Southwest

Location: Pond Inlet

Current Time: Aug 16, 2017 at 11:23:08 am

Latest Report: Aug 16, 2017 at 11:00 am


Visibility: 40 mi

Pressure: 29.93 "Hg

Humidity: 76%

Dew Point: 34 °F

Location of Arctic BayLocation

Past Weather in Arctic Bay — Graph

°F

Arctic Bay Temperature Yesterday

Maximum temperature yesterday: 48 °F (at 10:00 am)
Minimum temperature yesterday: 39 °F (at 11:00 pm)
Average temperature yesterday: 45 °F

High & Low Weather Summary for the Past Weeks

 TemperatureHumidityPressure
High64 °F (Aug 13, 3:00 pm)100% (Aug 11, 4:39 am)30.26 "Hg (Aug 11, 4:39 am)
Low34 °F (Aug 16, 2:00 am)40% (Aug 15, 2:00 pm)29.69 "Hg (Aug 14, 10:00 am)
Average46 °F80%29.91 "Hg
* Reported Aug 1 10:00 am — Aug 16 10:00 am, Arctic Bay. Weather by CustomWeather, © 2017

Note: Actual official high and low records may vary slightly from our data, if they occured in-between our weather recording intervals... More about our weather records

Advertising

Arctic Bay Weather History for the Previous 24 Hours

Scroll right to see more
 ConditionsComfort  
Time TempWeatherWind HumidityBarometerVisibility
10:00 am
Wed, Aug 16
41 °FSunny.10 mph81%29.94 "Hg9 mi
9:00 am43 °FSunny.8 mph71%29.94 "Hg9 mi
8:00 am41 °FSunny.7 mph81%29.95 "Hg9 mi
7:00 am41 °FSunny.5 mph70%29.95 "Hg9 mi
6:00 am37 °FSunny.5 mph75%29.94 "Hg9 mi
5:00 am36 °FSunny.5 mph75%29.94 "Hg9 mi
4:00 am34 °FSunny.2 mph75%29.94 "Hg9 mi
3:00 am34 °FSunny.2 mph75%29.93 "Hg9 mi
2:00 am34 °FSunny.2 mph81%29.93 "Hg9 mi
1:00 am36 °FClear.3 mph70%29.92 "Hg9 mi
12:00 am37 °FClear.No wind70%29.91 "Hg9 mi
11:00 pm
Tue, Aug 15
39 °FClear.3 mph65%29.90 "Hg9 mi
10:00 pm43 °FClear.3 mph66%29.90 "Hg9 mi
9:00 pm45 °FSunny.2 mph53%29.91 "Hg9 mi
8:00 pm45 °FSunny.5 mph57%29.89 "Hg9 mi
7:00 pm45 °FScattered clouds.6 mph57%29.88 "Hg40 mi
6:00 pm45 °FScattered clouds.15 mph53%29.87 "Hg40 mi
5:00 pm45 °FScattered clouds.10 mph57%29.87 "Hg40 mi
4:00 pm45 °FScattered clouds.12 mph57%29.86 "Hg40 mi
3:00 pm46 °FScattered clouds.12 mph50%29.85 "Hg40 mi
2:00 pm48 °FScattered clouds.7 mph40%29.85 "Hg40 mi
1:00 pm46 °FBroken clouds.10 mph53%29.84 "Hg40 mi
12:00 pm46 °FBroken clouds.6 mph46%29.84 "Hg40 mi
11:00 am46 °FBroken clouds.7 mph50%29.84 "Hg40 mi
Weather by CustomWeather, © 2017

See weather overviewHow to use our weather pages